User: anonymous   Login
Location: Unspecified
(0.0000°N, 0.0000°E)
Time: 14:00:35
(UTC+00:00)
Language:

Shinsei - Orbit

View from above orbital plane
View from above orbital plane
View from above satellite
View from above satellite

Ground track
Ground track

The orbit data is extracted from the following two-line orbital elements,

1  5485U 71080A   18050.91559928 +.00000063 +00000-0 +94977-4 0  9999
2  5485 032.0532 292.2296 0640046 106.2364 260.9573 12.74125483161448
Epoch (UTC): 19 February 2018 21:58:27
Eccentricity: 0.0640046
inclination: 32.0532°
perigee height: 869 km
apogee height: 1861 km
right ascension of ascending node: 292.2296°
argument of perigee: 106.2364°
revolutions per day: 12.74125483
mean anomaly at epoch: 260.9573°
orbit number at epoch: 16144

The dashed part of the orbit path shows where the satellite is in the earth's shadow,  

DLR